Monday, February 25, 2013

Avoca, PA
on Thursday, July 24, 2014

Thursday
Previous Day Next Day
Daily Summary
 ActualAverageRecord
Temperature
Mean Temperature °F 72°F  
Max Temperature 75°F 82°F 95°F (1933)
Min Temperature 64°F 61°F 49°F (1985)
Degree Days
Heating Degree Days 0 0  
Month to date heating degree days 0  
Since 1 June heating degree days 54  
Since 1 July heating degree days 0  
Cooling Degree Days 4 7  
Month to date cooling degree days 163  
Year to date cooling degree days 317  
Since 1 June cooling degree days 280  
Growing Degree Days20 (Base °F )  
Moisture
Dew Point 56°F   
Average Humidity    
Maximum Humidity 79    
Minimum Humidity 38    
Precipitation
Precipitation 0.00 in 0.13 in 3.28 in (1933)
Month to date precipitation 2.88  
Year to date precipitation 20.71  
Since 1 June precipitation 6.91  
Wind
Wind Speed 7 mph   
Max Wind Speed 15 mph   
Max Gust Speed 25 mph   
Visibility 10.0 miles   
Events     

Key: T is trace of precipitation, MM is missing value
Source: Averaged Metar Reports
Time(EDT)TemperatureDew PointHumidity Pressure Visibility Wind DirectionWind SpeedGust SpeedPrecipitationEvents Conditions
12:16 AM 69.8°F 62.6°F 78% 29.91 in 10.0 miles North 4.6 mph - N/A   Overcast
12:54 AM 70.0°F 62.1°F 76% 29.88 in 10.0 miles NNW 9.2 mph - N/A   Overcast
1:28 AM 69.8°F 60.8°F 73% 29.91 in 10.0 miles NNW 6.9 mph - N/A   Overcast
1:49 AM 68.0°F 60.8°F 78% 29.90 in 10.0 miles NNW 9.2 mph - N/A   Overcast
1:54 AM 68.0°F 61.0°F 78% 29.87 in 10.0 miles NNW 6.9 mph - N/A   Overcast
2:54 AM 66.9°F 60.1°F 79% 29.87 in 10.0 miles Variable 3.5 mph - N/A   Overcast
3:54 AM 66.9°F 59.0°F 76% 29.87 in 10.0 miles NNW 4.6 mph - N/A   Overcast
4:54 AM 66.0°F 59.0°F 78% 29.88 in 10.0 miles North 3.5 mph - N/A   Mostly Cloudy
5:54 AM 66.0°F 57.9°F 75% 29.90 in 10.0 miles North 5.8 mph - N/A   Overcast
6:54 AM 64.9°F 57.9°F 78% 29.91 in 10.0 miles NNW 6.9 mph - N/A   Overcast
7:29 AM 66.2°F 55.4°F 68% 29.95 in 10.0 miles NNE 9.2 mph - N/A   Scattered Clouds
7:54 AM 66.9°F 57.0°F 70% 29.93 in 10.0 miles North 9.2 mph - N/A   Partly Cloudy
8:50 AM 68.0°F 55.4°F 64% 29.95 in 10.0 miles North 8.1 mph - N/A   Mostly Cloudy
8:54 AM 68.0°F 55.9°F 65% 29.92 in 10.0 miles NNE 8.1 mph - N/A   Mostly Cloudy
9:28 AM 69.8°F 55.4°F 60% 29.94 in 10.0 miles North 6.9 mph - N/A   Scattered Clouds
9:54 AM 69.1°F 55.0°F 61% 29.92 in 10.0 miles North 9.2 mph - N/A   Scattered Clouds
10:54 AM 73.0°F 51.1°F 46% 29.93 in 10.0 miles North 15.0 mph 25.3 mph N/A   Mostly Cloudy
11:54 AM 73.9°F 51.1°F 45% 29.94 in 10.0 miles North 10.4 mph 19.6 mph N/A   Mostly Cloudy
12:54 PM 75.9°F 48.9°F 38% 29.94 in 10.0 miles North 13.8 mph 20.7 mph N/A   Mostly Cloudy
1:54 PM 75.9°F 48.9°F 38% 29.92 in 10.0 miles North 12.7 mph 19.6 mph N/A   Mostly Cloudy
2:54 PM 75.9°F 48.9°F 38% 29.91 in 10.0 miles North 10.4 mph 19.6 mph N/A   Overcast
Astronomy
Sunrise:05:50 AM (EDT) Moon Rise:03:56 AM (EDT)
Sunset:08:27 PM (EDT) Moon Set:06:40 PM (EDT)
Moon Phase
Jul. 24 Jul. 26 Aug. 03 Aug. 10 Aug. 17

Copyright © 2014 The Weather Underground, Inc.
8,